• In Hungary
  • List of Countries
  • For 7 days
  • Water Temperature
  • Satellite Maps
  • Weather Map
  • News
  • Weather Widgets
  • user-avatar
    Login

    Hourly Weather Novoscherbakov

    Today, 13 December, Wednesday

    Time Temperature Precipitation Wind Pressure Humidity
    00:00 +6°C° 0 mm 4 mps 756 mmHg 88%
    01:00 +5°C° 0 mm 4 mps 756 mmHg 89%
    02:00 +5°C° 0 mm 4 mps 756 mmHg 90%
    03:00 +4°C° 0 mm 3 mps 755 mmHg 93%
    04:00 +4°C° 0 mm 3 mps 755 mmHg 94%
    05:00 +4°C° 0 mm 3 mps 755 mmHg 94%
    06:00 +4°C° 0 mm 3 mps 756 mmHg 94%
    07:00 +4°C° 0 mm 3 mps 756 mmHg 94%
    08:00 +4°C° 0 mm 3 mps 756 mmHg 93%
    09:00 +4°C° 0 mm 3 mps 756 mmHg 93%
    10:00 +5°C° 0 mm 3 mps 756 mmHg 87%
    11:00 +8°C° 0 mm 3 mps 756 mmHg 82%
    12:00 +9°C° 0 mm 3 mps 756 mmHg 76%
    13:00 +9°C° 0 mm 3 mps 755 mmHg 74%
    14:00 +9°C° 0 mm 3 mps 755 mmHg 71%
    15:00 +10°C° 0 mm 3 mps 755 mmHg 68%
    16:00 +9°C° 0 mm 3 mps 755 mmHg 70%
    17:00 +8°C° 0 mm 3 mps 755 mmHg 71%
    18:00 +7°C° 0 mm 3 mps 755 mmHg 72%
    19:00 +7°C° 0 mm 3 mps 755 mmHg 71%
    20:00 +7°C° 0 mm 3 mps 754 mmHg 70%
    21:00 +5°C° 0 mm 3 mps 754 mmHg 69%
    22:00 +5°C° 0 mm 3 mps 754 mmHg 70%
    23:00 +5°C° 0 mm 3 mps 754 mmHg 70%

    Tomorrow, 14 December, Thursday

    Time Temperature Precipitation Wind Pressure Humidity
    00:00 +4°C° 0 mm 3 mps 754 mmHg 70%
    01:00 +4°C° 0 mm 3 mps 754 mmHg 72%
    02:00 +4°C° 0 mm 3 mps 754 mmHg 73%
    03:00 +3°C° 0 mm 3 mps 754 mmHg 74%
    04:00 +3°C° 0 mm 3 mps 754 mmHg 75%
    05:00 +3°C° 0 mm 3 mps 754 mmHg 77%
    06:00 +3°C° 0 mm 4 mps 753 mmHg 78%
    07:00 +3°C° 0 mm 4 mps 753 mmHg 79%
    08:00 +3°C° 0 mm 4 mps 753 mmHg 80%
    09:00 +3°C° 0 mm 4 mps 753 mmHg 80%
    10:00 +3°C° 0 mm 5 mps 753 mmHg 77%
    11:00 +5°C° 0 mm 5 mps 753 mmHg 73%
    12:00 +6°C° 0 mm 5 mps 753 mmHg 69%
    13:00 +6°C° 0 mm 5 mps 753 mmHg 69%
    14:00 +7°C° 0 mm 5 mps 753 mmHg 69%
    15:00 +7°C° 0 mm 5 mps 753 mmHg 69%
    16:00 +6°C° 0 mm 5 mps 753 mmHg 73%
    17:00 +5°C° 0 mm 5 mps 753 mmHg 78%
    18:00 +5°C° 0 mm 4 mps 753 mmHg 82%
    19:00 +5°C° 0 mm 5 mps 753 mmHg 85%
    20:00 +3°C° 0 mm 5 mps 753 mmHg 87%
    21:00 +3°C° 0 mm 5 mps 753 mmHg 89%
    22:00 +3°C° 0 mm 5 mps 753 mmHg 90%
    23:00 +4°C° 0 mm 4 mps 752 mmHg 91%

    Day after tomorrow, 15 December, Friday

    Time Temperature Precipitation Wind Pressure Humidity
    00:00 +4°C° 0 mm 4 mps 752 mmHg 91%
    01:00 +4°C° 0 mm 4 mps 752 mmHg 91%
    02:00 +4°C° 0 mm 4 mps 753 mmHg 91%
    03:00 +4°C° 0 mm 4 mps 753 mmHg 91%
    04:00 +4°C° 0 mm 4 mps 753 mmHg 91%
    05:00 +4°C° 0 mm 4 mps 752 mmHg 91%
    06:00 +4°C° 0 mm 4 mps 752 mmHg 91%
    07:00 +4°C° 0 mm 4 mps 753 mmHg 90%
    08:00 +4°C° 0 mm 4 mps 753 mmHg 89%
    09:00 +3°C° 0 mm 5 mps 753 mmHg 89%
    10:00 +5°C° 0 mm 5 mps 753 mmHg 85%
    11:00 +5°C° 0 mm 5 mps 753 mmHg 81%
    12:00 +6°C° 0 mm 5 mps 753 mmHg 77%
    13:00 +6°C° 0.2 mm 4 mps 753 mmHg 76%
    14:00 +6°C° 0.2 mm 4 mps 753 mmHg 75%
    15:00 +6°C° 0.2 mm 4 mps 753 mmHg 75%
    16:00 +7°C° 0.2 mm 3 mps 754 mmHg 77%
    17:00 +7°C° 0.2 mm 3 mps 754 mmHg 80%
    18:00 +7°C° 0.2 mm 3 mps 754 mmHg 82%
    19:00 +7°C° 0 mm 3 mps 755 mmHg 85%
    20:00 +5°C° 0 mm 3 mps 755 mmHg 87%
    21:00 +6°C° 0 mm 2 mps 755 mmHg 90%
    22:00 +6°C° 0 mm 2 mps 755 mmHg 92%
    23:00 +6°C° 0 mm 2 mps 755 mmHg 93%

    16 December, Saturday

    Time Temperature Precipitation Wind Pressure Humidity
    00:00 +6°C° 0 mm 2 mps 756 mmHg 95%
    01:00 +6°C° 0 mm 2 mps 756 mmHg 95%
    02:00 +6°C° 0 mm 2 mps 756 mmHg 96%
    03:00 +6°C° 0 mm 2 mps 756 mmHg 96%
    04:00 +6°C° 0 mm 2 mps 756 mmHg 96%
    05:00 +5°C° 0 mm 3 mps 756 mmHg 97%
    06:00 +4°C° 0 mm 3 mps 756 mmHg 97%
    07:00 +5°C° 0 mm 3 mps 756 mmHg 95%
    08:00 +5°C° 0 mm 4 mps 757 mmHg 94%
    09:00 +5°C° 0 mm 4 mps 757 mmHg 92%
    10:00 +6°C° 0 mm 4 mps 756 mmHg 83%
    11:00 +7°C° 0 mm 5 mps 756 mmHg 73%
    12:00 +8°C° 0 mm 5 mps 756 mmHg 64%
    13:00 +9°C° 0 mm 5 mps 756 mmHg 62%
    14:00 +9°C° 0 mm 5 mps 756 mmHg 60%
    15:00 +9°C° 0 mm 5 mps 756 mmHg 59%
    16:00 +9°C° 0 mm 5 mps 756 mmHg 62%
    17:00 +8°C° 0 mm 5 mps 756 mmHg 66%
    18:00 +7°C° 0 mm 5 mps 755 mmHg 69%
    19:00 +7°C° 0 mm 6 mps 755 mmHg 73%
    20:00 +5°C° 0 mm 6 mps 755 mmHg 77%
    21:00 +5°C° 0 mm 6 mps 755 mmHg 80%
    22:00 +5°C° 0 mm 6 mps 755 mmHg 83%
    23:00 +4°C° 0 mm 6 mps 755 mmHg 85%

    17 December, Sunday

    Time Temperature Precipitation Wind Pressure Humidity
    00:00 +5°C° 0 mm 5 mps 755 mmHg 88%
    01:00 +3°C° 0 mm 5 mps 755 mmHg 89%
    02:00 +3°C° 0 mm 6 mps 755 mmHg 89%
    03:00 +3°C° 0 mm 6 mps 755 mmHg 90%
    04:00 +3°C° 0 mm 5 mps 755 mmHg 90%
    05:00 +2°C° 0 mm 5 mps 755 mmHg 91%
    06:00 +2°C° 0 mm 5 mps 755 mmHg 91%
    07:00 +2°C° 0 mm 5 mps 755 mmHg 91%
    08:00 +2°C° 0 mm 5 mps 755 mmHg 91%
    09:00 +2°C° 0 mm 5 mps 755 mmHg 91%
    10:00 +2°C° 0 mm 5 mps 755 mmHg 87%
    11:00 +3°C° 0 mm 6 mps 755 mmHg 83%
    12:00 +4°C° 0 mm 6 mps 754 mmHg 78%
    13:00 +4°C° 0 mm 6 mps 754 mmHg 77%
    14:00 +5°C° 0 mm 5 mps 754 mmHg 75%
    15:00 +6°C° 0 mm 5 mps 754 mmHg 73%
    16:00 +6°C° 0 mm 5 mps 754 mmHg 74%
    17:00 +5°C° 0 mm 5 mps 754 mmHg 75%
    18:00 +4°C° 0 mm 6 mps 754 mmHg 76%
    19:00 +4°C° 0 mm 6 mps 754 mmHg 77%
    20:00 +4°C° 0 mm 6 mps 754 mmHg 78%
    21:00 +4°C° 0 mm 6 mps 754 mmHg 79%
    22:00 +4°C° 0 mm 6 mps 754 mmHg 80%
    23:00 +4°C° 0 mm 6 mps 753 mmHg 81%

    18 December, Monday

    Time Temperature Precipitation Wind Pressure Humidity
    00:00 +4°C° 0 mm 6 mps 753 mmHg 83%
    01:00 +4°C° 0 mm 6 mps 753 mmHg 84%
    02:00 +4°C° 0 mm 6 mps 753 mmHg 86%
    03:00 +4°C° 0 mm 6 mps 753 mmHg 87%
    04:00 +5°C° 0 mm 5 mps 753 mmHg 88%
    05:00 +3°C° 0 mm 5 mps 753 mmHg 89%
    06:00 +3°C° 0 mm 5 mps 753 mmHg 89%
    07:00 +3°C° 0 mm 5 mps 753 mmHg 88%
    08:00 +5°C° 0 mm 5 mps 754 mmHg 88%
    09:00 +4°C° 0 mm 6 mps 754 mmHg 87%
    10:00 +5°C° 0 mm 6 mps 754 mmHg 81%
    11:00 +7°C° 0 mm 6 mps 754 mmHg 76%
    12:00 +8°C° 0 mm 6 mps 755 mmHg 70%
    13:00 +8°C° 0 mm 5 mps 755 mmHg 70%
    14:00 +8°C° 0 mm 5 mps 755 mmHg 71%
    15:00 +8°C° 0 mm 4 mps 755 mmHg 71%
    16:00 +7°C° 0.4 mm 4 mps 755 mmHg 75%
    17:00 +6°C° 0.4 mm 4 mps 756 mmHg 79%
    18:00 +5°C° 0.4 mm 3 mps 756 mmHg 82%
    19:00 +5°C° 0.3 mm 3 mps 756 mmHg 83%
    20:00 +4°C° 0.3 mm 3 mps 757 mmHg 83%
    21:00 +5°C° 0.3 mm 2 mps 757 mmHg 83%
    22:00 +5°C° 0.1 mm 2 mps 757 mmHg 83%
    23:00 +6°C° 0.1 mm 1 mps 757 mmHg 83%
    Show more